Home > Weather > Harare > Past weeks

Flag for Zimbabwe Weather for the Past 2 Weeks in Harare, Zimbabwe

Now
68 °F

Passing clouds.


Feels Like: 68 °F
Forecast: 50 / 73 °F
Wind: 7 mph from Southeast

Location: Harare Kutsaga Airport

Current Time: May 4, 2016 at 10:07:01 AM

Latest Report: May 4, 2016 at 9:00 AM


Visibility: N/A

Pressure: 30.30 "Hg (25.47 "Hg at 1490m altitude)

Humidity: 56%

Dew Point: 52 °F

Location of HarareLocation

Historic Weather in Harare — Graph

°F

Harare Temperature Yesterday

Maximum temperature yesterday: 77 °F (at 3:00 PM)
Minimum temperature yesterday: 50 °F (at 6:00 AM)
Average temperature yesterday: 64 °F

High & Low Weather Summary for the Past Weeks

 TemperatureHumidityPressure
High82 °F (Apr 20, 1:00 PM)100% (Apr 19, 8:00 AM)30.33 "Hg (Apr 19, 8:00 AM)
Low48 °F (Apr 28, 6:00 AM)26% (Apr 23, 12:00 PM)30.09 "Hg (Apr 29, 2:00 PM)
Average66 °F64%30.21 "Hg
* Reported Apr 19 8:00 AM — May 4 8:00 AM, Harare, Weather by CustomWeather, © 2016

Note: Actual official high and low records may vary slightly from our data, if they occured in-between our weather recording intervals... More about our weather records

Advertising

Harare Weather History for the Previous 24 Hours

Scroll right to see more
 ConditionsComfort  
Time TempWeatherWind HumidityBarometerVisibility
8:00 AM
Wed, May 4
61 °FPassing clouds.7 mph88%30.27 "HgN/A
7:00 AM54 °FSunny.6 mph100%30.27 "Hg10 mi
6:00 AM50 °FClear.5 mph100%30.24 "Hg10 mi
5:00 AM50 °FClear.5 mph100%30.21 "Hg10 mi
2:00 AM54 °FClear.2 mph100%30.18 "Hg10 mi
1:00 AM57 °FClear.6 mph82%30.21 "Hg10 mi
12:00 AM57 °FClear.7 mph82%30.21 "Hg10 mi
11:00 PM
Tue, May 3
59 °FClear.6 mph82%30.24 "Hg10 mi
10:00 PM59 °FClear.5 mph82%30.24 "Hg10 mi
9:00 PM59 °FPassing clouds.3 mph77%30.24 "HgN/A
8:00 PM61 °FPassing clouds.5 mph72%30.21 "HgN/A
7:00 PM61 °FClear.3 mph72%30.21 "Hg10 mi
6:00 PM66 °FClear.2 mph64%30.21 "Hg10 mi
5:00 PM73 °FSunny.3 mph47%30.18 "Hg10 mi
4:00 PM77 °FPassing clouds.5 mph39%30.18 "HgN/A
3:00 PM77 °FSunny.3 mph42%30.18 "Hg10 mi
2:00 PM75 °FSunny.6 mph44%30.21 "Hg10 mi
1:00 PM73 °FSunny.3 mph47%30.24 "Hg10 mi
12:00 PM70 °FScattered clouds.7 mph53%30.27 "HgN/A
11:00 AM68 °FScattered clouds.6 mph60%30.30 "HgN/A
10:00 AM68 °FScattered clouds.6 mph60%30.30 "HgN/A
Weather by CustomWeather, © 2016

See weather overviewHow to use our weather pages